This is the latest recevied weather packets stored in our database for station/object N4PWG. If no packets are shown the sender has not sent any weather packets the latest 10 day(s).
| Time | Temp. | Humidity | Pressure | Rain* | Wind** | Luminosity | Snow |
|---|---|---|---|---|---|---|---|
| 1778100932 | 12.78° C | 94% | 1031.9 hPa | 3.05 mm | - | 92 W/m² | - |
| 1778100627 | 12.78° C | 95% | 1032.1 hPa | 1.78 mm | - | 122 W/m² | - |
| 1778100325 | 12.78° C | 96% | 1032 hPa | 0 mm | - | 110 W/m² | - |
| 1778100022 | 12.78° C | 95% | 1032 hPa | 0 mm | - | 64 W/m² | - |
| 1778099720 | 12.78° C | 95% | 1032.4 hPa | 0 mm | - | 35 W/m² | - |
| 1778099416 | 13.33° C | 94% | 1032.3 hPa | 1.27 mm | - | 42 W/m² | - |
| 1778099114 | 12.78° C | 92% | 1032.2 hPa | 1.27 mm | - | 50 W/m² | - |
| 1778098810 | 13.33° C | 93% | 1032.2 hPa | 0 mm | - | 51 W/m² | - |
| 1778098508 | 13.33° C | 93% | 1032.1 hPa | 0 mm | - | 65 W/m² | - |
| 1778098204 | 12.78° C | 92% | 1032.3 hPa | 0 mm | - | 58 W/m² | - |
| 1778097901 | 12.78° C | 92% | 1032 hPa | 0 mm | - | 54 W/m² | - |
| 1778097597 | 12.78° C | 91% | 1031.9 hPa | 0 mm | - | 65 W/m² | - |
| 1778097294 | 12.78° C | 91% | 1032 hPa | 1.78 mm | - | 72 W/m² | - |
| 1778096990 | 13.33° C | 91% | 1031.9 hPa | 1.78 mm | - | 89 W/m² | - |
| 1778096688 | 13.33° C | 90% | 1032.5 hPa | 1.27 mm | - | 108 W/m² | - |
| 1778096384 | 13.33° C | 87% | 1033 hPa | 1.27 mm | - | 54 W/m² | - |
| 1778096082 | 13.89° C | 85% | 1033 hPa | 0 mm | - | 45 W/m² | - |
| 1778095778 | 13.89° C | 85% | 1032.9 hPa | 0 mm | - | 44 W/m² | - |
| 1778095475 | 13.89° C | 84% | 1033.3 hPa | 0 mm | - | 32 W/m² | - |
| 1778095172 | 13.33° C | 84% | 1032.9 hPa | 0 mm | - | 33 W/m² | - |
| 1778094868 | 13.33° C | 83% | 1032.5 hPa | 0 mm | - | 45 W/m² | - |
| 1778094565 | 13.33° C | 85% | 1032.4 hPa | 0 mm | - | 55 W/m² | - |
| 1778094262 | 13.33° C | 85% | 1031.9 hPa | 0 mm | - | 52 W/m² | - |
| 1778093959 | 13.89° C | 83% | 1032 hPa | 0 mm | - | 50 W/m² | - |
| 1778093656 | 13.89° C | 84% | 1032.1 hPa | 0 mm | - | 63 W/m² | - |
* Rain latest hour (hover to see other rain measurements)
** Current wind speed in m/s (hover to see current wind gust speed)